Location: Chefe Nibore
(16.5264°S, 37.0792°E)
Time: 06:32:54
(UTC+00:00)

Daily predictions for brighter satellites

Satellite Brightness Start Highest point End
(mag) Time Altitude Azimuth Time Altitude Azimuth Time Altitude Azimuth
H-2A R/B 3.5 15:30:18 10° WSW 15:33:37 31° S 15:44:16 10° ESE
Cosmos 2297 3.9 15:33:52 10° N 15:39:19 54° ENE 15:44:49 10° SSE
CZ-2C R/B 4.3 15:37:26 10° E 15:39:32 12° ESE 15:41:40 10° SE
CZ-3 Stage 3 3.4 15:27:58 10° WNW 15:40:50 59° SSW 15:44:14 10° SE
Cosmos 1842 Rocket 3.8 15:38:19 10° NNE 15:42:36 49° E 15:46:58 10° SSE
Cosmos 2251 Rocket 3.7 15:38:32 10° S 15:43:37 48° ESE 15:48:37 10° NNE
Cosmos 1340 2.7 15:42:58 10° S 15:46:46 86° W 15:50:31 10° N
SL-24 R/B 4.2 15:43:33 10° NNE 15:47:19 46° ESE 15:51:35 10° S
NOSS 3-2 (A) 4.5 15:43:55 10° SSE 15:47:53 19° ESE 15:51:40 10° ENE
CZ-4C R/B 4.0 15:41:02 10° NNE 15:48:00 28° ENE 15:54:42 10° SE
NOAA 12 4.1 15:42:52 10° SSE 15:48:15 83° ENE 15:53:35 10° N
Cosmos 1295 Rocket 4.4 15:43:57 10° S 15:50:04 70° E 15:56:06 10° N
GPS 2-04 Rocket1 4.0 15:46:57 10° NNW 15:50:05 24° NE 15:53:06 10° E
Cosmos 1420 Rocket 4.5 15:46:24 10° N 15:51:18 40° E 15:56:12 10° SSE
SEDSat Delta rocket 3.2 15:47:31 10° NW 15:51:26 51° NNE 15:55:24 11° ESE
DELTA 2 R/B (1) 4.3 15:47:14 10° WNW 15:52:35 48° SW 15:57:58 10° SE
Cosmos 1939 Rocket 3.9 15:51:38 10° SE 15:54:51 24° E 15:58:00 10° NNE
Cosmos 1943 Rocket 2.9 15:50:39 10° NNE 15:55:27 31° ENE 16:00:15 10° SE
Envisat 4.1 15:52:21 10° S 15:57:16 48° WSW 16:02:07 10° NNW
SWIFT 2.9 15:54:06 10° WNW 15:58:14 47° NNE 16:01:50 13° E
Cosmos 1766 Rocket 3.5 15:56:30 10° S 16:00:58 78° E 16:05:24 10° N
GPS 2-12 Rocket1 2.9 15:58:53 10° WNW 16:03:18 84° N 16:06:52 16° E
YAOGAN 1 4.0 16:02:02 12° ESE 16:04:33 19° E 16:07:36 10° NE
Milstar 3 4.5 15:57:51 10° NNW 16:04:48 31° NE 16:13:39 14° E
Cosmos 1633 3.5 16:02:39 10° SSE 16:05:43 26° E 16:08:45 10° NE
ATLAS 2AS CENTAUR R/B 4.2 16:01:54 10° WNW 16:07:24 31° WSW 16:12:47 10° S
Milstar 3 Cent rocket 3.5 16:03:42 10° WSW 16:08:40 26° SSW 16:12:15 12° SE
COSMOS 2406 3.2 16:05:01 10° S 16:10:45 67° ESE 16:16:28 10° NNE
Delta 198 3.4 16:10:09 10° W 16:13:54 66° SSW 16:16:36 21° ESE
ASTRO E2 3.0 16:11:46 10° NW 16:15:39 52° NNE 16:17:50 24° E
Cosmos 1346 Rocket 3.2 16:11:43 10° SSW 16:15:39 66° W 16:19:33 10° N
Delta 168 4.3 16:14:00 10° W 16:19:11 57° SSW 16:24:43 19° ESE
Cosmos 1408 Rocket 3.5 16:15:06 10° S 16:19:32 68° E 16:23:57 10° NNE
Cosmos 304 Rocket 4.3 16:15:23 10° NNE 16:19:42 35° E 16:22:28 19° SE
Cosmos 2341 Rocket 4.0 16:13:34 10° S 16:19:49 86° E 16:26:02 10° N
SL-8 Rocket 4.0 16:14:05 10° S 16:20:11 60° E 16:26:13 10° NNE
CZ-4 R/B 4.5 16:16:26 10° SSE 16:20:34 58° E 16:24:40 10° N
Cosmos 1743 Rocket 4.2 16:19:24 10° SSE 16:23:20 32° E 16:27:14 10° NNE
Okean-O 2.6 16:20:29 10° SSE 16:24:53 61° E 16:29:15 10° N
Cosmos 2082 Rocket 2.9 16:21:17 10° S 16:26:17 30° ESE 16:31:03 11° NE
CZ-2C R/B 4.3 16:28:04 21° ENE 16:28:04 21° ENE 16:31:12 10° NNE
Intelsat 5-1 Rocket 3.7 16:17:41 10° W 16:31:09 54° SSW 16:34:13 25° SE
BREEZE-M R/B 4.0 16:29:10 10° NW 16:35:42 50° SW 16:37:59 21° SSE
Aurora 2 Rocket 2.8 16:35:15 10° SW 16:38:07 32° SSE 16:38:07 32° SSE
Hubble Space Telescope 2.8 16:37:47 10° SW 16:40:15 15° S 16:40:40 15° S
Cosmos 332 Rocket 4.1 16:37:52 10° NNW 16:42:43 70° WSW 16:47:38 10° S
Cosmos 1190 Rocket 4.5 16:37:58 10° S 16:42:15 37° ESE 16:42:15 37° ESE
Cosmos 1500 Rocket 3.5 16:38:32 10° S 16:42:51 57° E 16:47:06 10° NNE
USA 238 DEB 3.5 16:36:15 10° SSW 16:42:53 65° ESE 16:49:22 10° NE
USA 238 3.5 16:36:24 10° SSW 16:43:01 64° ESE 16:49:27 10° NE
GPS 2-18 Rocket1 4.0 16:40:34 10° W 16:44:25 44° NNW 16:45:44 32° NNE
CZ-4 R/B 1.2 16:42:30 23° S 16:44:51 88° W 16:48:42 10° NNW
Cosmos 407 Rocket 3.5 16:40:35 10° S 16:45:50 55° ESE 16:51:03 10° NNE
Intelsat 5-2 Rocket 3.4 16:46:20 10° NW 16:49:32 34° N 16:49:32 34° N
Cosmos 2218 Rocket 4.0 16:44:13 10° S 16:50:34 86° W 16:56:48 10° N
NOAA 15 4.5 16:51:17 15° SSE 16:55:47 87° ENE 17:01:05 10° NNW
H-2A R/B 3.3 17:01:43 27° NNE 17:01:43 27° NNE 17:04:25 10° N
Cosmos 1452 Rocket 4.1 16:54:42 10° NNW 16:59:50 56° WSW 17:04:28 13° S
CSL-04 Debris 4.0 17:02:16 50° SE 17:03:41 73° ENE 17:09:09 10° N
RESURS DK-1 4.5 17:00:48 10° NW 17:04:15 25° WSW 17:07:21 12° SSW
Cosmos 2369 Rocket 2.3 17:01:06 10° NNW 17:06:46 74° WSW 17:09:30 32° S
Cosmos 2263 4.0 17:03:07 10° N 17:08:50 77° ENE 17:09:22 71° ESE
Cosmos 1140 Rocket 4.2 17:06:45 10° S 17:10:06 41° S 17:10:06 41° S
CENTAUR R/B 3.4 17:07:44 10° SSW 17:10:04 26° S 17:10:04 26° S
Nadezhda 3 Rocket 4.3 17:10:25 10° NNW 17:16:29 65° W 17:22:38 10° S
Cosmos 1833 Rocket 4.0 17:12:09 10° SW 17:17:19 38° WNW 17:22:27 10° N
CZ-2C R/B 3.5 17:14:13 10° N 17:19:17 48° W 17:24:33 10° SSW
ATLAS 2AS CENTAUR RB 3.8 17:18:52 10° WNW 17:19:36 14° WNW 17:19:36 14° WNW
Cosmos 1656 Rocket 4.4 17:21:58 10° NNW 17:25:38 43° N 17:25:38 43° N
Mugunghwa Rocket 4.2 17:24:44 10° NW 17:30:36 58° N 17:30:36 58° N
CZ-4C R/B 3.9 17:28:20 10° NW 17:36:28 48° WSW 17:41:05 25° S
Cosmos 1943 Rocket 4.5 17:35:10 10° WNW 17:39:02 19° WSW 17:42:55 10° SSW
NOSS 3-2 (C) 4.4 17:38:53 10° SW 17:42:12 34° SW 17:42:12 34° SW
Cosmos 2082 Rocket 4.4 18:05:48 10° SW 18:10:02 21° WNW 18:14:15 10° NNW
Milstar 3 4.4 18:38:45 10° WNW 18:47:13 68° W 18:47:13 68° W
